sat.trackr.live / text

‹ back to catalog

STARLINK-31596

NORAD 59336 · 2024-057S

PAYLOAD ACTIVE UNKNOWN

§ Identity

Operator
Country
US
Launch date
2024-03-25
Launch site
AFETR
Launch vehicle
Mass (kg)
RCS (m²)

Purposes: comms

External: N2YO · Heavens-Above · Gunter

§ Orbital elements

Epoch: 2026-09-19T02:39:38.367936Z

Period
94.27 min
Inclination
43.0021°
Eccentricity
0.0001170
Mean motion
15.27572991 rev/d
Perigee alt
482.3 km
Apogee alt
483.9 km
Semi-major
6,861.2 km
B*
3.7625e-5
RAAN
174.4436°
Arg perigee
274.6486°
Mean anomaly
85.4232°
Rev number
13,942

§ Raw data

STARLINK-315961 59336U 24057S   26262.11086074  .00000773  00000+0  37625-4 0  99922 59336  43.0021 174.4436 0001170 274.6486  85.4232 15.27572991139424

JSON: /api/v1/satellites/59336 · /tle

For live sub-satellite position, see the globe view (requires WebGL).

§ Visibility from observer

Set your observer location to see the next 7 days of passes ≥ 10°. The values pass through the URL so the page stays shareable.

No JS? Fill the form by hand. The geolocation button needs JavaScript.